TimeHST,TemperatureF,Dew PointF,Humidity,Sea Level PressureIn,VisibilityMPH,Wind Direction,Wind SpeedMPH,Gust SpeedMPH,PrecipitationIn,Events,Conditions,WindDirDegrees,DateUTC
12:16 AM,35.6,21.2,56,29.78,8.0,WNW,9.2,-,N/A,,Overcast,300,2013-11-24 10:16:00
12:36 AM,35.6,21.2,56,29.78,8.0,WNW,5.8,-,N/A,,Overcast,290,2013-11-24 10:36:00
12:56 AM,33.8,21.2,60,29.78,10.0,NW,8.1,-,N/A,,Overcast,320,2013-11-24 10:56:00
1:16 AM,35.6,19.4,52,29.78,10.0,NNW,9.2,-,N/A,,Overcast,340,2013-11-24 11:16:00
1:36 AM,35.6,19.4,52,29.78,10.0,North,6.9,19.6,N/A,,Overcast,350,2013-11-24 11:36:00
1:56 AM,35.6,17.6,48,29.77,10.0,NW,5.8,-,N/A,,Overcast,320,2013-11-24 11:56:00
2:16 AM,33.8,17.6,52,29.77,10.0,NW,6.9,-,N/A,,Overcast,310,2013-11-24 12:16:00
2:36 AM,35.6,17.6,48,29.77,10.0,NW,6.9,-,N/A,,Overcast,310,2013-11-24 12:36:00
2:56 AM,35.6,19.4,52,29.77,10.0,WNW,4.6,-,N/A,,Overcast,300,2013-11-24 12:56:00
3:16 AM,33.8,19.4,56,29.76,10.0,Calm,Calm,-,N/A,,Overcast,0,2013-11-24 13:16:00
3:36 AM,33.8,19.4,56,29.76,10.0,NW,6.9,-,N/A,,Overcast,320,2013-11-24 13:36:00
3:56 AM,33.8,17.6,52,29.77,-9999.0,NNW,4.6,-,N/A,,Unknown,330,2013-11-24 13:56:00
4:16 AM,33.8,19.4,56,29.77,10.0,NNW,3.5,-,N/A,,Overcast,340,2013-11-24 14:16:00
4:36 AM,33.8,19.4,56,29.76,10.0,WNW,3.5,-,N/A,,Overcast,290,2013-11-24 14:36:00
4:56 AM,33.8,17.6,52,29.76,10.0,NW,5.8,-,N/A,,Overcast,310,2013-11-24 14:56:00
5:16 AM,33.8,17.6,52,29.76,10.0,NNW,4.6,-,N/A,,Mostly Cloudy,330,2013-11-24 15:16:00
5:36 AM,33.8,19.4,56,29.76,10.0,NW,6.9,-,N/A,,Overcast,320,2013-11-24 15:36:00
5:56 AM,33.8,19.4,56,29.76,10.0,WNW,5.8,-,N/A,,Overcast,290,2013-11-24 15:56:00
6:16 AM,33.8,19.4,56,29.76,10.0,NNW,8.1,-,N/A,,Overcast,330,2013-11-24 16:16:00
6:36 AM,33.8,26.6,75,29.77,10.0,North,8.1,-,N/A,,Overcast,10,2013-11-24 16:36:00
6:56 AM,33.8,23.0,65,29.77,10.0,NW,4.6,-,N/A,,Mostly Cloudy,320,2013-11-24 16:56:00
7:16 AM,32.0,21.2,64,29.76,10.0,NW,8.1,-,N/A,,Partly Cloudy,320,2013-11-24 17:16:00
7:36 AM,32.0,24.8,75,29.77,10.0,WNW,9.2,-,N/A,,Scattered Clouds,290,2013-11-24 17:36:00
7:56 AM,32.0,21.2,64,29.76,10.0,WNW,10.4,-,N/A,,Scattered Clouds,290,2013-11-24 17:56:00
8:16 AM,32.0,21.2,64,29.77,10.0,WNW,9.2,-,N/A,,Partly Cloudy,300,2013-11-24 18:16:00
8:36 AM,33.8,21.2,60,29.77,10.0,NW,8.1,-,N/A,,Clear,310,2013-11-24 18:36:00
8:56 AM,32.0,23.0,69,29.78,10.0,WNW,5.8,-,N/A,,Mostly Cloudy,300,2013-11-24 18:56:00
9:16 AM,33.8,24.8,70,29.78,10.0,NW,8.1,-,N/A,,Mostly Cloudy,320,2013-11-24 19:16:00
9:36 AM,32.0,23.0,69,29.78,10.0,NW,8.1,-,N/A,,Partly Cloudy,310,2013-11-24 19:36:00
9:56 AM,33.8,23.0,65,29.78,10.0,WNW,8.1,-,N/A,,Clear,290,2013-11-24 19:56:00
10:16 AM,33.8,24.8,70,29.78,10.0,NNW,3.5,-,N/A,,Clear,340,2013-11-24 20:16:00
10:36 AM,33.8,24.8,70,29.78,10.0,NW,4.6,-,N/A,,Unknown,310,2013-11-24 20:36:00
10:56 AM,35.6,23.0,60,29.79,10.0,NNW,4.6,-,N/A,,Unknown,340,2013-11-24 20:56:00
11:16 AM,35.6,23.0,60,29.79,10.0,NW,5.8,-,N/A,,Unknown,320,2013-11-24 21:16:00
11:36 AM,35.6,24.8,65,29.78,10.0,NNW,5.8,-,N/A,,Unknown,340,2013-11-24 21:36:00
11:56 AM,35.6,26.6,70,29.79,10.0,NNW,12.7,-,N/A,,Unknown,340,2013-11-24 21:56:00
12:16 PM,33.8,28.4,81,29.79,6.0,NNW,3.5,-,N/A,,Mostly Cloudy,340,2013-11-24 22:16:00
12:36 PM,33.8,28.4,81,29.78,10.0,Calm,Calm,-,N/A,,Overcast,0,2013-11-24 22:36:00
12:56 PM,33.8,28.4,81,29.78,10.0,NNW,6.9,-,N/A,,Scattered Clouds,330,2013-11-24 22:56:00
1:16 PM,35.6,24.8,65,29.78,10.0,NW,8.1,-,N/A,,Scattered Clouds,310,2013-11-24 23:16:00
1:36 PM,37.4,24.8,60,29.77,10.0,NNW,9.2,-,N/A,,Scattered Clouds,330,2013-11-24 23:36:00
1:56 PM,37.4,24.8,60,29.77,10.0,NW,12.7,-,N/A,,Clear,310,2013-11-24 23:56:00
2:16 PM,37.4,24.8,60,29.77,10.0,North,12.7,-,N/A,,Partly Cloudy,350,2013-11-25 00:16:00
2:36 PM,37.4,24.8,60,29.77,10.0,North,10.4,-,N/A,,Mostly Cloudy,350,2013-11-25 00:36:00
2:56 PM,35.6,24.8,65,29.77,10.0,NNW,8.1,-,N/A,,Scattered Clouds,340,2013-11-25 00:56:00
3:16 PM,35.6,24.8,65,29.77,10.0,NW,6.9,-,N/A,,Mostly Cloudy,320,2013-11-25 01:16:00
3:36 PM,35.6,24.8,65,29.77,10.0,WNW,13.8,18.4,N/A,,Partly Cloudy,300,2013-11-25 01:36:00
3:56 PM,35.6,24.8,65,29.77,10.0,NNW,9.2,-,N/A,,Unknown,340,2013-11-25 01:56:00
4:16 PM,35.6,24.8,65,29.78,10.0,WNW,10.4,-,N/A,,Mostly Cloudy,300,2013-11-25 02:16:00
4:36 PM,35.6,23.0,60,29.78,10.0,NW,10.4,-,N/A,,Scattered Clouds,310,2013-11-25 02:36:00
4:56 PM,-9999,-9999,N/A,-9999,-9999.0,North,-9999.0,-,N/A,,Unknown,0,2013-11-25 02:56:00
5:16 PM,33.8,26.6,75,29.79,7.0,WNW,4.6,-,N/A,,Unknown,290,2013-11-25 03:16:00
5:36 PM,33.8,24.8,70,29.79,10.0,NW,5.8,-,N/A,,Unknown,310,2013-11-25 03:36:00
5:56 PM,32.0,23.0,69,29.79,10.0,NW,5.8,-,N/A,,Unknown,310,2013-11-25 03:56:00
6:16 PM,32.0,23.0,69,29.79,10.0,WNW,4.6,-,N/A,,Clear,300,2013-11-25 04:16:00
6:36 PM,30.2,21.2,69,29.79,10.0,NNW,3.5,-,N/A,,Clear,330,2013-11-25 04:36:00
6:56 PM,32.0,23.0,69,29.79,10.0,Calm,Calm,-,N/A,,Scattered Clouds,0,2013-11-25 04:56:00
7:16 PM,32.0,24.8,75,29.80,10.0,WNW,5.8,-,N/A,,Scattered Clouds,300,2013-11-25 05:16:00
7:36 PM,32.0,24.8,75,29.80,10.0,NW,6.9,-,N/A,,Partly Cloudy,310,2013-11-25 05:36:00
7:56 PM,32.0,24.8,75,29.81,10.0,NW,5.8,-,N/A,,Partly Cloudy,310,2013-11-25 05:56:00
8:16 PM,32.0,26.6,80,29.81,1.5,NW,4.6,-,N/A,,Overcast,310,2013-11-25 06:16:00
8:36 PM,32.0,28.4,87,29.81,5.0,West,5.8,-,N/A,,Overcast,280,2013-11-25 06:36:00
8:56 PM,33.8,28.4,81,29.80,-9999.0,West,8.1,-,N/A,,Unknown,270,2013-11-25 06:56:00
9:16 PM,33.8,26.6,75,29.81,8.0,NNW,6.9,-,N/A,,Overcast,340,2013-11-25 07:16:00
9:36 PM,33.8,28.4,81,29.81,3.0,WNW,12.7,16.1,N/A,,Overcast,290,2013-11-25 07:36:00
9:56 PM,33.8,26.6,75,29.81,2.5,West,8.1,-,N/A,,Overcast,270,2013-11-25 07:56:00
10:16 PM,33.8,26.6,75,29.81,10.0,West,6.9,-,N/A,,Overcast,260,2013-11-25 08:16:00
10:36 PM,-9999,-9999,N/A,29.80,-9999.0,West,10.4,-,N/A,,Unknown,270,2013-11-25 08:36:00
10:56 PM,33.8,26.6,75,29.81,9.0,NNW,4.6,-,N/A,,Overcast,340,2013-11-25 08:56:00
11:16 PM,33.8,24.8,70,29.82,10.0,West,12.7,-,N/A,,Mostly Cloudy,270,2013-11-25 09:16:00
11:36 PM,32.0,26.6,80,29.82,10.0,West,12.7,-,N/A,,Mostly Cloudy,260,2013-11-25 09:36:00
11:56 PM,32.0,24.8,75,29.82,10.0,WSW,12.7,-,N/A,,Scattered Clouds,250,2013-11-25 09:56:00